Über Jilin-1 GaoFen 06A 16 xing
Group: 3 satellites
Beschreibung wird geladen...
Live-Position
3D-Globus wird geladen...
Nächste Überflüge
Höhenverlauf
Altitude vs Time
uPlot chart will show altitude changes over time
Zweizeiliger Elementsatz
1 57027U 23085Z 25289.55330620 .14464732 25899-5 44815-3 0 9993
2 57027 97.4442 52.0905 0011459 274.9767 85.0226 16.44024818130652
Epoch: 16. Okt. 2025 •
Age: 221 hours
Aktueller Status
Position data unavailable
Startdatum 15. Juni 2023
Alter 2.3 years
Typ other
Technische Details
Klassifizierung Payload
Masse 42.00 kg
Trockenmasse 42.00 kg
Gesamtmasse 42.00 kg
Länge 1.50 m
Durchmesser 1.00 m
Spannweite 1.50 m
Form Box
Hersteller CGSTL
Bus-Typ JL-1
Phasenstatus In Orbit
Besitzer/Staat CGSTL/CN
Große Konstellationen
Loading constellations...